FW7738 Weather Reports


time (UTC)temp
C
wind
direction
speed
KPH
gust
KPH
rain 1hr
cm
rain 24hr
cm
rain mn
cm
humidity
%
barometer
mb
20260502203029 17 90 3.2 6.4 0.00 0.00 0.00 88 1016.3
20260502202044 17 85 3.2 6.4 0.00 0.00 0.00 87 1015.9
20260502201019 17 84 4.8 9.7 0.00 0.00 0.00 87 1016.0
20260502200035 17 88 4.8 9.7 0.00 0.00 0.00 87 1016.0
20260502195050 17 84 6.4 12.9 0.00 0.00 0.00 88 1015.7
20260502194025 17 93 6.4 11.3 0.00 0.00 0.00 88 1015.9
20260502193021 17 85 3.2 9.7 0.00 0.00 0.00 87 1015.8
20260502192016 17 99 9.7 14.5 0.00 0.00 0.00 87 1015.7
20260502191031 18 96 8.0 16.1 0.00 0.00 0.00 87 1015.6
20260502190026 17 102 9.7 17.7 0.00 0.00 0.00 87 1015.5
20260502185022 18 95 8.0 17.7 0.00 0.00 0.00 87 1015.3
20260502184017 18 102 11.3 20.9 0.00 0.00 0.00 86 1015.7
20260502183032 18 100 6.4 16.1 0.00 0.00 0.00 86 1015.9
20260502182027 18 85 8.0 16.1 0.00 0.00 0.00 86 1016.0
20260502181023 18 90 4.8 11.3 0.00 0.00 0.00 86 1016.1
20260502164021 18 113 11.3 20.9 0.00 0.00 0.00 82 1016.5
20260502163016 18 126 12.9 20.9 0.00 0.00 0.00 82 1016.5
20260502162031 18 107 11.3 24.1 0.00 0.00 0.00 82 1016.5
20260502161026 19 119 16.1 25.7 0.00 0.00 0.00 82 1016.4
20260502152043 20 123 8.0 17.7 0.00 0.00 0.00 78 1016.5
20260502151018 20 127 12.9 20.9 0.00 0.00 0.00 78 1016.8
20260502123023 19 137 17.7 29.0 0.00 0.00 0.00 83 1018.2
20260502122019 19 129 12.9 20.9 0.00 0.00 0.00 83 1018.6
20260502121034 19 124 11.3 20.9 0.00 0.00 0.00 81 1018.8
20260502115045 20 101 8.0 16.1 0.00 0.00 0.00 81 1018.6
20260502114019 20 117 11.3 20.9 0.00 0.00 0.00 80 1018.8
20260502113035 20 122 11.3 22.5 0.00 0.00 0.00 79 1018.9
20260502112031 20 140 14.5 22.5 0.00 0.00 0.00 79 1018.8
20260502110532 20 138 12.9 22.5 0.00 0.00 0.00 80 1019.0
20260502105528 20 113 14.5 22.5 0.00 0.00 0.00 80 1019.1
20260502104522 20 98 11.3 24.1 0.00 0.00 0.00 79 1019.1
20260502103518 20 123 11.3 24.1 0.00 0.00 0.00 76 1019.2
20260502102553 20 106 6.4 16.1 0.00 0.00 0.00 75 1019.2
20260502101529 20 119 4.8 12.9 0.00 0.00 0.00 75 1019.3
20260502100544 20 115 8.0 16.1 0.00 0.00 0.00 75 1019.2
20260502091522 20 101 6.4 12.9 0.00 0.00 0.00 77 1019.4
20260502090517 19 83 3.2 9.7 0.00 0.00 0.00 80 1019.6
20260502071526 18 53 3.2 9.7 0.00 0.00 0.00 83 1019.6
20260502070521 18 65 3.2 6.4 0.00 0.00 0.00 84 1019.6
20260502065536 18 54 3.2 9.7 0.00 0.00 0.00 85 1019.4
20260502064532 17 50 3.2 6.4 0.00 0.00 0.00 87 1019.5
20260502063527 17 40 0.0 3.2 0.00 0.00 0.00 88 1019.7
20260502062522 17 0.0 0.0 0.00 0.00 0.00 89 1019.9
20260502060533 17 44 0.0 1.6 0.00 0.00 0.00 91 1019.6
20260502055529 17 0.0 0.0 0.00 0.00 0.00 91 1019.5
20260502054524 17 0.0 0.0 0.00 0.00 0.00 92 1019.5
20260502053519 17 0.0 0.0 0.00 0.00 0.00 92 1019.3
20260502052515 17 0.0 0.0 0.00 0.00 0.00 92 1019.4
20260502051531 17 0.0 0.0 0.00 0.00 0.00 92 1019.2
20260502050526 17 0.0 0.0 0.00 0.03 0.00 92 1019.5
20260502045522 17 0.0 0.0 0.00 0.03 0.00 92 1019.3
20260502044517 17 19 0.0 1.6 0.00 0.05 0.00 92 1019.4
20260502043533 17 0.0 0.0 0.00 0.05 0.00 92 1019.3
20260502042528 17 50 0.0 3.2 0.00 0.05 0.00 93 1019.4
20260502041524 17 66 0.0 1.6 0.00 0.05 0.00 93 1019.4
20260502040519 17 0.0 0.0 0.00 0.05 0.00 93 1019.5
20260502035534 17 26 0.0 1.6 0.00 0.05 0.00 93 1019.6
20260502034530 17 22 0.0 1.6 0.00 0.05 0.00 93 1019.8
20260502033545 17 26 0.0 1.6 0.00 0.05 0.00 93 1019.8
20260502032521 17 36 0.0 1.6 0.00 0.05 0.00 93 1019.9
20260502031516 17 51 1.6 3.2 0.00 0.05 0.00 93 1019.7
20260502030532 17 48 0.0 1.6 0.00 0.05 0.00 93 1019.8
20260502025527 17 57 1.6 4.8 0.00 0.05 0.00 93 1019.6
20260502024524 17 44 1.6 3.2 0.00 0.05 0.00 93 1019.5
20260502023538 17 61 1.6 4.8 0.00 0.05 0.00 93 1019.6
20260502022533 17 64 0.0 3.2 0.00 0.05 0.00 93 1019.7
20260502021529 17 54 1.6 9.7 0.00 0.05 0.00 93 1019.7
20260502020524 17 54 1.6 4.8 0.00 0.05 0.00 93 1019.8
20260502015519 17 41 0.0 3.2 0.00 0.05 0.00 93 1019.9
20260502014515 17 62 0.0 3.2 0.00 0.05 0.00 93 1019.9
20260502013531 17 61 1.6 9.7 0.00 0.05 0.00 93 1020.0
20260502012526 17 53 1.6 4.8 0.00 0.05 0.00 93 1020.0
20260502011522 17 54 1.6 4.8 0.00 0.05 0.00 93 1020.1
20260502010518 17 64 1.6 6.4 0.00 0.05 0.00 93 1020.3
20260502005533 17 57 1.6 4.8 0.00 0.05 0.00 93 1020.4
20260502004548 17 43 1.6 4.8 0.00 0.05 0.00 92 1020.3
20260502003523 17 53 1.6 4.8 0.00 0.05 0.00 92 1020.4
20260502002519 17 57 1.6 3.2 0.00 0.05 0.00 92 1020.5
20260502001555 17 57 0.0 3.2 0.00 0.05 0.00 92 1020.8
20260502000529 17 68 0.0 3.2 0.00 0.05 0.00 92 1020.9
20260501235524 17 43 0.0 1.6 0.00 0.05 0.05 91 1021.0
20260501234520 17 62 1.6 3.2 0.00 0.05 0.05 91 1021.0
20260501233516 17 69 0.0 3.2 0.00 0.05 0.05 91 1021.2
20260501232531 17 65 1.6 4.8 0.00 0.05 0.05 91 1021.2
20260501231527 17 62 1.6 4.8 0.00 0.05 0.05 91 1021.3
20260501230522 17 55 0.0 3.2 0.00 0.05 0.05 91 1021.1
20260501225517 17 68 1.6 9.7 0.00 0.05 0.05 91 1021.0
20260501224533 17 55 1.6 6.4 0.00 0.05 0.05 91 1021.2
20260501223529 17 63 1.6 6.4 0.00 0.05 0.05 91 1021.1
20260501222524 17 63 1.6 4.8 0.00 0.05 0.05 90 1021.1
20260501221539 17 61 1.6 6.4 0.00 0.05 0.05 90 1021.1
20260501220534 17 77 3.2 4.8 0.00 0.05 0.05 90 1021.2
20260501215529 17 80 1.6 3.2 0.00 0.05 0.05 90 1021.4
20260501214524 17 73 0.0 1.6 0.00 0.05 0.05 90 1021.5
20260501213519 17 46 0.0 1.6 0.00 0.05 0.05 90 1021.5
20260501212535 17 80 1.6 4.8 0.00 0.05 0.05 89 1021.5
20260501211551 17 54 0.0 1.6 0.00 0.05 0.05 89 1021.4
20260501210526 17 74 1.6 4.8 0.00 0.05 0.05 89 1021.6
20260501205541 17 87 1.6 3.2 0.00 0.05 0.05 89 1021.5
20260501204517 17 66 0.0 1.6 0.00 0.05 0.05 89 1021.7
20260501203532 17 78 0.0 1.6 0.00 0.05 0.05 89 1021.5